[[{"header":{"parameterUnit":"m.s-1","parameterCategory":1,"la1":30.2991,"la2":30.254,"lo1":-89.0895,"lo2":-89.0444,"dy":0.0017,"dx":0.0017,"nx":28,"ny":28,"refTime":"2023-08-11T21:00:00:Z","depth":0,"parameterNumber":2,"parameterNumberName":"U-component_of_WINDS"},"data":[0,0,0,0,0,0,0,0,0,0,0,0,0,0,0,0,0,0,0,0,0,0,0,0,0,0,0,0,0,0,0,0,0,0,0,0,0,0,0,0,0,0,0,0,0,0,0,0,0,0,0,0,0,0,0,0,0,0,2.792,2.7921,0,2.8001,2.8002,2.8003,2.792,2.7917,2.7914,2.7911,2.7993,2.7998,2.8003,0,0,0,0,0,0,0,0,0,0,0,0,0,2.7693,2.7698,2.792,2.7921,2.7922,2.8001,2.8002,2.8003,2.7921,2.7917,2.7913,2.7909,2.7991,2.7997,2.8003,0,0,0,0,0,0,0,0,0,0,0,0,0,2.7785,2.7699,2.792,2.7891,2.7889,2.8,2.8002,2.8003,2.7921,2.7917,2.7912,2.7907,2.7989,2.7996,2.8004,2.8148,0,0,2.8028,2.8031,0,0,0,0,0,0,0,0,2.778,2.7793,2.7894,2.7893,2.7891,2.7945,2.7952,2.8052,2.7923,2.7909,2.7911,2.7905,2.7981,2.7989,2.8014,2.8152,2.8156,2.8028,2.8033,2.8036,2.8039,0,0,0,0,0,0,0,2.7773,2.7789,2.7952,2.7896,2.7894,2.7873,2.788,2.797,2.7971,2.791,2.7904,2.7915,2.7979,2.8007,2.8016,2.8157,2.8028,2.8035,2.804,2.8043,2.8415,2.842,0,0,0,0,0,0,2.777,2.7784,2.7949,2.7954,2.7822,2.7881,2.7889,2.7933,2.797,2.7971,2.7919,2.7911,2.7996,2.8007,2.8018,2.8188,2.8036,2.8044,2.8048,2.841,2.8416,2.8422,0,0,0,0,0,0,2.7766,2.7786,2.7946,2.7868,2.7887,2.789,2.7939,2.7937,2.7965,2.7976,2.7976,2.7948,2.7993,2.8007,2.8116,2.819,2.8047,2.8054,2.8403,2.8412,2.8419,2.8531,0,0,0,0,0,0,2.776,2.7785,2.784,2.787,2.7891,2.8044,2.7944,2.7942,2.7979,2.7969,2.8003,2.8005,2.799,2.8105,2.8124,2.8198,2.806,2.8397,2.8407,2.8416,2.852,2.8541,2.8559,0,0,0,0,0,2.7752,2.7869,2.7844,2.7864,2.7961,2.8048,2.806,2.8042,2.7985,2.804,2.8047,2.8003,2.8179,2.8117,2.8137,2.8215,2.8392,2.8404,2.8416,2.8512,2.8537,2.8559,0,0,0,0,0,0,2.7848,2.7872,2.7844,2.7974,2.801,2.8034,2.8103,2.807,2.8122,2.811,2.8085,2.8093,2.8208,2.8222,2.8153,2.8356,2.8276,2.8293,2.8342,2.8367,2.8386,2.838,2.8067,0,0,0,0,0,2.7884,2.7954,2.7971,2.8084,2.8103,2.81,2.8138,2.812,2.8156,2.817,2.8185,2.8221,2.8284,2.8326,2.8385,2.8522,2.8527,2.8585,2.8605,2.8621,2.8635,2.8707,2.8733,2.846,2.846,2.846,0,0,2.796,2.7982,2.8027,2.8104,2.8129,2.8201,2.8114,2.8193,2.8246,2.8182,2.8285,2.8298,2.8336,2.8459,2.8514,2.8475,2.8712,2.8636,2.8648,2.8654,2.8722,2.8748,2.877,2.8468,2.8467,2.8465,0,0,2.8134,2.8158,2.8254,2.8281,2.8321,2.8318,2.8341,2.837,2.8376,2.8479,2.8433,2.8494,2.8604,2.8633,2.8662,2.8846,2.8807,2.8865,2.8967,2.9037,2.9059,2.9078,2.9142,2.9166,2.888,2.888,2.888,0,2.8223,2.833,2.8308,2.8391,2.8425,2.8371,2.8467,2.8494,2.8551,2.8576,2.8531,2.8666,2.8688,2.8816,2.8861,2.8887,2.8911,2.8861,2.9058,2.9076,2.9093,2.9155,2.9179,2.8887,2.8886,2.8885,2.8885,0,2.8436,2.8511,2.8584,2.864,2.8682,2.8772,2.8763,2.8808,2.8787,2.8789,2.8894,2.8918,2.898,2.9009,2.8989,2.9135,2.9109,2.9061,2.8981,2.9127,2.9183,2.9207,2.8897,2.8894,2.8892,2.889,0,0,2.8673,2.8716,2.8743,2.8767,2.8806,2.8863,2.8949,2.9009,2.9049,2.9089,2.916,2.9254,2.9209,2.9242,2.9225,2.9287,2.943,2.9232,2.9232,2.9267,2.9589,2.9624,2.9652,2.9404,2.9409,2.9412,2.9586,0,2.8848,2.8998,2.898,2.9123,2.9191,2.914,2.9215,2.9247,2.925,2.9308,2.9311,2.9378,2.9315,2.9334,2.9394,2.94,2.9494,2.9387,2.9469,2.9472,2.946,2.9682,2.9719,2.9882,2.9608,2.9612,2.9614,0,2.9071,2.9119,2.927,2.9297,2.9325,2.9393,2.9446,2.9502,2.9536,2.9534,2.9571,2.9542,2.9628,2.9546,2.9663,2.9591,2.9623,2.9631,2.9637,2.9643,2.9552,2.9693,2.9933,2.9957,2.965,2.9647,2.9644,0,2.9227,2.933,2.9433,2.9455,2.949,2.9539,2.9555,2.9585,2.9622,2.9669,2.9692,2.9748,2.9779,2.9822,2.9809,2.9751,2.9929,2.9846,2.9928,2.9929,2.9968,2.9965,3.0216,2.9991,2.999,2.999,2.9989,0,2.9423,2.9516,2.9503,2.9566,2.9669,2.9647,2.9749,2.976,2.9786,2.985,2.9809,2.9869,2.9849,2.9908,2.9898,2.9995,3.001,3.001,3.0006,3.0013,3.0013,3.0033,3.0021,2.9996,2.9995,2.9993,2.9992,0,2.9615,2.961,2.9718,2.9742,2.975,2.9825,2.9845,2.9904,2.9904,2.9984,3.0002,3.0003,3.007,3.0061,3.0136,3.0129,3.025,3.0233,3.0239,3.0234,3.0317,3.0309,3.0588,3.0623,3.0377,3.0379,3.0381,0,2.9739,2.981,2.9842,2.9881,2.9901,2.9966,3.0003,2.9985,3.0025,3.0069,3.0122,3.0186,3.0235,3.0345,3.0351,3.0408,3.0391,3.0485,3.04,3.0404,3.0391,3.0387,3.0393,3.0502,3.0505,3.0507,3.0509,0,2.9961,2.9955,3.001,3.0066,3.0112,3.0154,3.0193,3.0227,3.0212,3.0259,3.0328,3.0366,3.0442,3.0505,3.0559,3.0574,3.0539,3.0536,3.0558,3.0565,3.0565,3.0565,3.0284,3.053,3.0528,3.0526,3.0525,3.0524,3.0122,3.0181,3.0213,3.0276,3.0303,3.034,3.0396,3.0403,3.0459,3.052,3.0505,3.0582,3.0613,3.0681,3.0703,3.0762,3.0727,3.0759,3.0767,3.0775,3.0784,3.0557,3.0772,3.0771,3.077,3.077,3.077,0,3.034,3.0357,3.0416,3.0471,3.052,3.0483,3.0523,3.0567,3.0635,3.0667,3.0717,3.0795,3.0855,3.0867,3.0924,3.0969,3.0954,3.0985,3.0981,3.0985,3.0813,3.0787,3.0996,3.0996,3.0996,3.0995,3.0995,3.0995,3.0459,3.0558,3.0555,3.0667,3.0683,3.0758,3.0784,3.0817,3.0843,3.0931,3.0982,3.0989,3.1012,3.1071,3.1124,3.1126,3.1149,3.1185,3.1181,3.102,3.0997,3.0975,3.0951,3.1191,3.1191,3.1347,3.1349,3.135]},{"header":{"parameterUnit":"m.s-1","parameterCategory":1,"la1":30.2991,"la2":30.254,"lo1":-89.0895,"lo2":-89.0444,"dy":0.0017,"dx":0.0017,"nx":28,"ny":28,"refTime":"2023-08-11T21:00:00:Z","depth":0,"parameterNumber":3,"parameterNumberName":"V-component_of_WINDS"},"data":[0,0,0,0,0,0,0,0,0,0,0,0,0,0,0,0,0,0,0,0,0,0,0,0,0,0,0,0,0,0,0,0,0,0,0,0,0,0,0,0,0,0,0,0,0,0,0,0,0,0,0,0,0,0,0,0,0,0,6.0797,6.0798,0,6.0847,6.0847,6.0848,6.0785,6.0782,6.078,6.0778,6.0824,6.0828,6.0831,0,0,0,0,0,0,0,0,0,0,0,0,0,6.0641,6.0644,6.0797,6.0798,6.0798,6.0847,6.0848,6.0848,6.0785,6.0782,6.0779,6.0777,6.0823,6.0827,6.0831,0,0,0,0,0,0,0,0,0,0,0,0,0,6.0701,6.0645,6.0797,6.0773,6.0771,6.0847,6.0848,6.0848,6.0786,6.0782,6.0779,6.0776,6.0822,6.0827,6.0832,6.0932,0,0,6.0847,6.0849,0,0,0,0,0,0,0,0,6.0698,6.0707,6.0776,6.0775,6.0773,6.0806,6.0809,6.0876,6.0787,6.078,6.0778,6.0774,6.0821,6.0826,6.0842,6.0934,6.0936,6.0848,6.0851,6.0853,6.0854,0,0,0,0,0,0,0,6.0694,6.0705,6.0817,6.0777,6.0775,6.0757,6.0762,6.0822,6.0819,6.078,6.0776,6.0783,6.0819,6.0838,6.0843,6.0937,6.0848,6.0852,6.0855,6.0857,6.111,6.1113,0,0,0,0,0,0,6.0693,6.0702,6.0815,6.0818,6.0726,6.0763,6.0768,6.0799,6.0818,6.0818,6.0786,6.078,6.0831,6.0837,6.0844,6.0961,6.0853,6.0858,6.0861,6.1106,6.1111,6.1115,0,0,0,0,0,0,6.069,6.0704,6.0813,6.0759,6.0771,6.0769,6.0804,6.0802,6.082,6.0822,6.0821,6.0806,6.0828,6.0837,6.091,6.0961,6.086,6.0865,6.1102,6.1108,6.1113,6.1196,0,0,0,0,0,0,6.0686,6.0704,6.0743,6.076,6.0774,6.088,6.0807,6.0805,6.083,6.0822,6.0841,6.084,6.0826,6.0903,6.0915,6.0967,6.0869,6.1097,6.1104,6.1111,6.1188,6.1203,6.1216,0,0,0,0,0,6.0681,6.0764,6.0746,6.076,6.0824,6.0883,6.0891,6.0875,6.0834,6.0872,6.0874,6.084,6.0954,6.0911,6.0924,6.0978,6.1094,6.1102,6.111,6.1182,6.12,6.1216,0,0,0,0,0,0,6.0752,6.0766,6.0746,6.0838,6.086,6.0873,6.0921,6.0895,6.0929,6.092,6.0897,6.0901,6.0979,6.0986,6.0937,6.1074,6.1017,6.1028,6.1067,6.1084,6.1098,6.1094,6.0873,0,0,0,0,0,6.0779,6.0828,6.0836,6.0916,6.0929,6.0923,6.0948,6.0934,6.0955,6.0964,6.097,6.0991,6.1031,6.1058,6.1096,6.1189,6.1191,6.1232,6.1246,6.1258,6.1267,6.1314,6.1332,6.1142,6.1142,6.1142,0,0,6.0834,6.0848,6.088,6.0931,6.0947,6.0995,6.0931,6.0986,6.1021,6.0972,6.1041,6.1046,6.1068,6.1151,6.1187,6.1159,6.132,6.1268,6.1278,6.1281,6.1324,6.1342,6.1358,6.1147,6.1146,6.1145,0,0,6.0959,6.0976,6.1043,6.1059,6.1084,6.1079,6.1096,6.1112,6.1114,6.1183,6.1147,6.1187,6.1258,6.1274,6.1291,6.142,6.1389,6.1433,6.1505,6.1551,6.1566,6.1579,6.1622,6.1639,6.1443,6.1443,6.1443,0,6.1024,6.1097,6.108,6.1137,6.1159,6.1118,6.1184,6.12,6.1236,6.1251,6.1219,6.1305,6.1317,6.1402,6.1433,6.145,6.1465,6.143,6.1566,6.1579,6.159,6.1631,6.1648,6.1448,6.1447,6.1447,6.1446,0,6.1174,6.1225,6.1276,6.1312,6.134,6.1401,6.1391,6.1421,6.1404,6.1402,6.1471,6.1484,6.1522,6.1541,6.1525,6.1623,6.1604,6.157,6.1511,6.1614,6.1652,6.1668,6.1455,6.1453,6.1452,6.1451,0,0,6.1345,6.137,6.1389,6.1403,6.1427,6.1465,6.1523,6.1561,6.1586,6.1611,6.1658,6.1718,6.1685,6.1705,6.169,6.1731,6.1828,6.169,6.169,6.1713,6.1934,6.1959,6.1977,6.1809,6.1812,6.1814,6.1931,0,6.1468,6.157,6.1555,6.1653,6.1698,6.1658,6.1708,6.1727,6.1726,6.1763,6.1762,6.1804,6.1759,6.177,6.1809,6.1808,6.1872,6.18,6.1849,6.1851,6.1843,6.1998,6.2024,6.2134,6.1946,6.1949,6.1951,0,6.1625,6.1657,6.1759,6.1773,6.1791,6.1837,6.1869,6.1906,6.1925,6.1921,6.1943,6.192,6.1975,6.1917,6.1991,6.1943,6.1962,6.1964,6.1968,6.197,6.1906,6.2002,6.2169,6.2185,6.1975,6.1973,6.1971,0,6.1737,6.1804,6.1873,6.1887,6.1906,6.1938,6.1947,6.1963,6.1986,6.2014,6.2029,6.2063,6.2081,6.2107,6.2092,6.2052,6.2168,6.211,6.2164,6.2165,6.2189,6.2187,6.236,6.2206,6.2205,6.2205,6.2205,0,6.1874,6.1937,6.1923,6.1965,6.2034,6.2015,6.2083,6.2087,6.2101,6.2142,6.211,6.2149,6.2128,6.2165,6.2154,6.2215,6.2224,6.2221,6.2217,6.2223,6.2223,6.2233,6.2225,6.2209,6.2209,6.2208,6.2207,0,6.2009,6.2003,6.2075,6.2087,6.2091,6.2141,6.215,6.2188,6.2185,6.2236,6.2247,6.2242,6.2282,6.2271,6.2316,6.2308,6.2385,6.2373,6.2379,6.2375,6.2429,6.2424,6.2613,6.2636,6.2469,6.2471,6.2472,0,6.2097,6.2144,6.2161,6.2186,6.2198,6.2239,6.2262,6.2245,6.227,6.2295,6.233,6.2368,6.2397,6.2464,6.2463,6.2496,6.2482,6.2546,6.2487,6.249,6.248,6.2476,6.248,6.2557,6.2559,6.2561,6.2562,0,6.2251,6.2245,6.228,6.2315,6.2343,6.2369,6.2392,6.2414,6.2398,6.2428,6.2469,6.2492,6.2537,6.2574,6.2604,6.2611,6.2583,6.2581,6.2595,6.26,6.2601,6.2599,6.2409,6.2576,6.2575,6.2574,6.2573,6.2573,6.2363,6.2402,6.242,6.2459,6.2475,6.2496,6.2532,6.2533,6.2568,6.2604,6.2591,6.2638,6.2653,6.2691,6.2702,6.2737,6.2712,6.2733,6.2738,6.2743,6.2749,6.2597,6.2743,6.2742,6.2742,6.2742,6.2741,0,6.2513,6.2522,6.2559,6.2592,6.2622,6.2595,6.2618,6.2645,6.2687,6.2704,6.2734,6.278,6.2816,6.2818,6.2851,6.2878,6.2866,6.2887,6.2884,6.2885,6.277,6.2754,6.2896,6.2896,6.2896,6.2896,6.2896,6.2896,6.2595,6.2659,6.2655,6.2725,6.2733,6.278,6.2795,6.2813,6.2827,6.2881,6.291,6.2912,6.2922,6.2955,6.2986,6.2985,6.2997,6.3023,6.3017,6.2909,6.2894,6.2879,6.2863,6.3026,6.3027,6.3129,6.313,6.3131]}]]